MXA4477 MMZO-MMVR

Flight info

Callsign MXA4477
Flight time 1h 16m
Altitude 39000
Route MEKLI UJ58 TUZAS J42 TLC UJ12 URSOT
Aircraft A20N/M-SDE2E3FGHIRWXY/LB1

Departure

Time 2026-05-09 07:37
Airport Playa de Oro International Airport (MMZO)

Arrival

Time 2026-05-09 08:54
Airport General Heriberto Jara International Airport (MMVR)
Time Latitude Longitude Altitude Speed Heading
2026-05-09 06:58 19.14754 -104.56042 -1 ft 0 kts 16°
2026-05-09 07:21 19.14742 -104.56046 3 ft 2 kts 25°
2026-05-09 07:21 19.14728 -104.56054 -10 ft 2 kts 35°
2026-05-09 07:22 19.14716 -104.56066 -7 ft 2 kts 59°
2026-05-09 07:22 19.14710 -104.56082 -8 ft 2 kts 91°
2026-05-09 07:22 19.14712 -104.56096 -7 ft 1 kts 106°
2026-05-09 07:22 19.14712 -104.56097 -7 ft 0 kts 105°
2026-05-09 07:29 19.14702 -104.56056 -6 ft 7 kts 105°
2026-05-09 07:29 19.14690 -104.56011 -13 ft 6 kts 105°
2026-05-09 07:29 19.14683 -104.55991 -10 ft 0 kts 113°
2026-05-09 07:30 19.14669 -104.55970 -12 ft 12 kts 129°
2026-05-09 07:30 19.14584 -104.55881 -13 ft 20 kts 136°
2026-05-09 07:31 19.14487 -104.55780 -10 ft 19 kts 135°
2026-05-09 07:31 19.14425 -104.55666 -11 ft 17 kts 104°
2026-05-09 07:31 19.14393 -104.55548 -12 ft 16 kts 107°
2026-05-09 07:31 19.14361 -104.55441 -14 ft 14 kts 107°
2026-05-09 07:32 19.14336 -104.55347 -13 ft 13 kts 105°
2026-05-09 07:32 19.14302 -104.55224 -15 ft 22 kts 107°
2026-05-09 07:32 19.14251 -104.55042 -17 ft 27 kts 105°
2026-05-09 07:32 19.14238 -104.54926 -14 ft 17 kts 68°
2026-05-09 07:33 19.14244 -104.54853 -14 ft 10 kts 143°
2026-05-09 07:33 19.14213 -104.54893 -15 ft 0 kts 284°
2026-05-09 07:36 19.14215 -104.54901 -14 ft 14 kts 284°
2026-05-09 07:36 19.14327 -104.55315 -15 ft 101 kts 285°
2026-05-09 07:37 19.14588 -104.56273 10 ft 166 kts 286°
2026-05-09 07:37 19.14931 -104.57559 399 ft 195 kts 285°
2026-05-09 07:37 19.15332 -104.59018 1017 ft 215 kts 285°
2026-05-09 07:37 19.15729 -104.60619 1843 ft 231 kts 284°
2026-05-09 07:38 19.16151 -104.62317 2706 ft 248 kts 285°
2026-05-09 07:38 19.16593 -104.64134 3393 ft 267 kts 284°
2026-05-09 07:38 19.17051 -104.66067 4288 ft 273 kts 283°
2026-05-09 07:38 19.17508 -104.68018 5199 ft 275 kts 284°
2026-05-09 07:39 19.17858 -104.69523 5850 ft 278 kts 283°
2026-05-09 07:39 19.17922 -104.69821 5980 ft 279 kts 281°
2026-05-09 07:40 19.17906 -104.71874 6762 ft 283 kts 256°
2026-05-09 07:40 19.17034 -104.73738 7510 ft 286 kts 229°
2026-05-09 07:40 19.15445 -104.75038 8299 ft 288 kts 203°
2026-05-09 07:40 19.13492 -104.75473 9083 ft 290 kts 178°
2026-05-09 07:41 19.11564 -104.74987 9829 ft 293 kts 153°
2026-05-09 07:41 19.09962 -104.73648 10420 ft 303 kts 129°
2026-05-09 07:41 19.08934 -104.71632 10640 ft 326 kts 106°
2026-05-09 07:41 19.08727 -104.69173 10868 ft 347 kts 83°
2026-05-09 07:42 19.09475 -104.66732 11467 ft 355 kts 61°
2026-05-09 07:42 19.10860 -104.64555 12164 ft 359 kts 55°
2026-05-09 07:42 19.12292 -104.62372 12848 ft 363 kts 58°
2026-05-09 07:42 19.13579 -104.60068 13544 ft 366 kts 63°
2026-05-09 07:43 19.14643 -104.57611 14163 ft 368 kts 72°
2026-05-09 07:43 19.15279 -104.54980 14777 ft 370 kts 82°
2026-05-09 07:43 19.15625 -104.52271 15385 ft 374 kts 84°
2026-05-09 07:43 19.15961 -104.49532 15974 ft 378 kts 84°
2026-05-09 07:44 19.16307 -104.46761 16571 ft 382 kts 84°
2026-05-09 07:44 19.16663 -104.43955 17156 ft 386 kts 84°
2026-05-09 07:44 19.17023 -104.41131 17716 ft 390 kts 84°
2026-05-09 07:44 19.17390 -104.38264 18256 ft 394 kts 84°
2026-05-09 07:45 19.17757 -104.35384 18727 ft 397 kts 84°
2026-05-09 07:45 19.18129 -104.32468 19198 ft 401 kts 84°
2026-05-09 07:45 19.18503 -104.29528 19668 ft 405 kts 84°
2026-05-09 07:45 19.18880 -104.26559 20149 ft 409 kts 83°
2026-05-09 07:46 19.19259 -104.23567 20618 ft 413 kts 83°
2026-05-09 07:46 19.19642 -104.20542 21062 ft 417 kts 83°
2026-05-09 07:46 19.20027 -104.17494 21524 ft 420 kts 83°
2026-05-09 07:46 19.20417 -104.14412 21985 ft 424 kts 83°
2026-05-09 07:47 19.20811 -104.11302 22427 ft 428 kts 83°
2026-05-09 07:47 19.21209 -104.08163 22888 ft 432 kts 83°
2026-05-09 07:47 19.21610 -104.04997 23305 ft 436 kts 83°
2026-05-09 07:47 19.22015 -104.01805 23691 ft 440 kts 83°
2026-05-09 07:48 19.22421 -103.98594 24063 ft 443 kts 83°
2026-05-09 07:48 19.22830 -103.95355 24418 ft 446 kts 83°
2026-05-09 07:48 19.23241 -103.92095 24770 ft 449 kts 83°
2026-05-09 07:48 19.23642 -103.88914 25101 ft 452 kts 83°
2026-05-09 07:49 19.23923 -103.86677 25338 ft 454 kts 83°
2026-05-09 07:49 19.24327 -103.83462 25675 ft 458 kts 83°
2026-05-09 07:49 19.24747 -103.80111 26005 ft 461 kts 83°
2026-05-09 07:49 19.25169 -103.76744 26346 ft 464 kts 83°
2026-05-09 07:50 19.25594 -103.73341 26659 ft 467 kts 84°
2026-05-09 07:50 19.26014 -103.69977 26977 ft 470 kts 84°
2026-05-09 07:50 19.26442 -103.66541 27297 ft 473 kts 84°
2026-05-09 07:50 19.26873 -103.63085 27598 ft 476 kts 84°
2026-05-09 07:51 19.27306 -103.59597 27908 ft 479 kts 84°
2026-05-09 07:51 19.27730 -103.56089 28200 ft 481 kts 85°
2026-05-09 07:51 19.28044 -103.52563 28507 ft 483 kts 86°
2026-05-09 07:51 19.28309 -103.49009 28795 ft 486 kts 87°
2026-05-09 07:52 19.28574 -103.45423 29075 ft 489 kts 87°
2026-05-09 07:52 19.28853 -103.41779 29357 ft 491 kts 87°
2026-05-09 07:52 19.29007 -103.39833 29515 ft 493 kts 87°
2026-05-09 07:52 19.29355 -103.35498 29846 ft 496 kts 86°
2026-05-09 07:53 19.29650 -103.31857 30094 ft 499 kts 86°
2026-05-09 07:53 19.29946 -103.28197 30332 ft 501 kts 86°
2026-05-09 07:53 19.30245 -103.24502 30562 ft 504 kts 86°
2026-05-09 07:53 19.30544 -103.20798 30783 ft 506 kts 86°
2026-05-09 07:54 19.30758 -103.18139 30936 ft 509 kts 86°
2026-05-09 07:54 19.31060 -103.14404 31247 ft 509 kts 86°
2026-05-09 07:54 19.31360 -103.10681 31539 ft 509 kts 86°
2026-05-09 07:54 19.31660 -103.06934 31802 ft 510 kts 86°
2026-05-09 07:55 19.31962 -103.03143 32123 ft 510 kts 86°
2026-05-09 07:55 19.32255 -102.99445 32400 ft 511 kts 86°
2026-05-09 07:55 19.32556 -102.95647 32682 ft 512 kts 86°
2026-05-09 07:55 19.32849 -102.91937 32965 ft 512 kts 86°
2026-05-09 07:56 19.33145 -102.88184 33241 ft 513 kts 86°
2026-05-09 07:56 19.33446 -102.84369 33520 ft 513 kts 86°
2026-05-09 07:56 19.33738 -102.80650 33785 ft 514 kts 86°
2026-05-09 07:56 19.34032 -102.76883 34033 ft 513 kts 86°
2026-05-09 07:57 19.34330 -102.73066 34283 ft 513 kts 86°
2026-05-09 07:57 19.34619 -102.69353 34526 ft 513 kts 87°
2026-05-09 07:57 19.34911 -102.65583 34766 ft 513 kts 87°
2026-05-09 07:57 19.35203 -102.61820 34992 ft 513 kts 87°
2026-05-09 07:58 19.35493 -102.58057 35220 ft 513 kts 87°
2026-05-09 07:58 19.35784 -102.54288 35457 ft 513 kts 87°
2026-05-09 07:58 19.36073 -102.50522 35672 ft 513 kts 87°
2026-05-09 07:58 19.36361 -102.46759 35904 ft 513 kts 87°
2026-05-09 07:59 19.36649 -102.42989 36132 ft 513 kts 87°
2026-05-09 07:59 19.36936 -102.39221 36336 ft 514 kts 87°
2026-05-09 07:59 19.37222 -102.35451 36550 ft 514 kts 87°
2026-05-09 07:59 19.37508 -102.31680 36755 ft 514 kts 87°
2026-05-09 08:00 19.37793 -102.27908 36970 ft 514 kts 87°
2026-05-09 08:00 19.38078 -102.24135 37155 ft 514 kts 87°
2026-05-09 08:00 19.38362 -102.20371 37334 ft 513 kts 87°
2026-05-09 08:01 19.38832 -102.14095 37566 ft 515 kts 87°
2026-05-09 08:01 19.39114 -102.10319 37716 ft 515 kts 87°
2026-05-09 08:01 19.39398 -102.06495 37891 ft 514 kts 87°
2026-05-09 08:01 19.39561 -102.02708 38025 ft 513 kts 94°
2026-05-09 08:02 19.39479 -101.98938 38164 ft 513 kts 94°
2026-05-09 08:02 19.39404 -101.95168 38337 ft 512 kts 94°
2026-05-09 08:02 19.39332 -101.91386 38507 ft 513 kts 94°
2026-05-09 08:03 19.39190 -101.83882 38685 ft 513 kts 94°
2026-05-09 08:03 19.39117 -101.80107 38828 ft 512 kts 94°
2026-05-09 08:03 19.39041 -101.76285 38842 ft 512 kts 94°
2026-05-09 08:04 19.38890 -101.68813 38835 ft 510 kts 94°
2026-05-09 08:04 19.38735 -101.61297 38826 ft 510 kts 94°
2026-05-09 08:05 19.38578 -101.53792 38826 ft 510 kts 94°
2026-05-09 08:05 19.38416 -101.46235 38816 ft 510 kts 94°
2026-05-09 08:06 19.38252 -101.38732 38808 ft 510 kts 94°
2026-05-09 08:06 19.38086 -101.31285 38794 ft 508 kts 94°
2026-05-09 08:07 19.37915 -101.23751 38782 ft 508 kts 94°
2026-05-09 08:07 19.37744 -101.16296 38770 ft 506 kts 94°
2026-05-09 08:08 19.37569 -101.08882 38760 ft 507 kts 94°
2026-05-09 08:08 19.37385 -101.01375 38756 ft 506 kts 95°
2026-05-09 08:09 19.36819 -100.93977 38752 ft 504 kts 98°
2026-05-09 08:09 19.36206 -100.86585 38746 ft 504 kts 98°
2026-05-09 08:10 19.35602 -100.79189 38744 ft 503 kts 97°
2026-05-09 08:10 19.34998 -100.71801 38745 ft 503 kts 97°
2026-05-09 08:11 19.34391 -100.64435 38746 ft 502 kts 97°
2026-05-09 08:11 19.33782 -100.57074 38753 ft 501 kts 97°
2026-05-09 08:12 19.32864 -100.46071 38764 ft 500 kts 97°
2026-05-09 08:12 19.32250 -100.38752 38777 ft 498 kts 97°
2026-05-09 08:13 19.31635 -100.31442 38778 ft 498 kts 97°
2026-05-09 08:13 19.31018 -100.24147 38791 ft 497 kts 97°
2026-05-09 08:14 19.30398 -100.16854 38808 ft 498 kts 97°
2026-05-09 08:14 19.29773 -100.09549 38827 ft 498 kts 97°
2026-05-09 08:15 19.29147 -100.02256 38843 ft 498 kts 97°
2026-05-09 08:15 19.28517 -99.94953 38871 ft 498 kts 97°
2026-05-09 08:16 19.27931 -99.88188 38981 ft 499 kts 97°
2026-05-09 08:16 19.27326 -99.81238 39099 ft 498 kts 97°
2026-05-09 08:17 19.26689 -99.73951 39216 ft 498 kts 97°
2026-05-09 08:17 19.26049 -99.66662 39323 ft 498 kts 98°
2026-05-09 08:18 19.25405 -99.59359 39385 ft 498 kts 98°
2026-05-09 08:18 19.24757 -99.52058 39369 ft 498 kts 97°
2026-05-09 08:19 19.24107 -99.44754 39287 ft 499 kts 97°
2026-05-09 08:19 19.23464 -99.37569 39177 ft 499 kts 97°
2026-05-09 08:20 19.22811 -99.30288 39051 ft 497 kts 97°
2026-05-09 08:20 19.22154 -99.23018 39037 ft 497 kts 97°
2026-05-09 08:21 19.21493 -99.15737 39073 ft 497 kts 97°
2026-05-09 08:21 19.20830 -99.08460 39090 ft 497 kts 98°
2026-05-09 08:22 19.20163 -99.01177 39071 ft 496 kts 97°
2026-05-09 08:22 19.19496 -98.93911 39029 ft 496 kts 97°
2026-05-09 08:23 19.18827 -98.86659 38967 ft 496 kts 97°
2026-05-09 08:23 19.18155 -98.79395 38913 ft 496 kts 97°
2026-05-09 08:24 19.17479 -98.72134 38925 ft 496 kts 97°
2026-05-09 08:24 19.16802 -98.64882 38936 ft 495 kts 97°
2026-05-09 08:25 19.16125 -98.57674 38947 ft 491 kts 97°
2026-05-09 08:25 19.15445 -98.50455 38961 ft 495 kts 97°
2026-05-09 08:26 19.14761 -98.43220 38966 ft 494 kts 97°
2026-05-09 08:26 19.14074 -98.35995 38978 ft 493 kts 97°
2026-05-09 08:27 19.13385 -98.28777 38985 ft 494 kts 97°
2026-05-09 08:27 19.12694 -98.21564 38996 ft 493 kts 97°
2026-05-09 08:28 19.12000 -98.14349 38940 ft 494 kts 97°
2026-05-09 08:28 19.11654 -98.10767 38608 ft 495 kts 97°
2026-05-09 08:28 19.11304 -98.07146 37966 ft 496 kts 97°
2026-05-09 08:29 19.10953 -98.03517 37179 ft 499 kts 97°
2026-05-09 08:29 19.10597 -97.99850 36322 ft 502 kts 97°
2026-05-09 08:29 19.10240 -97.96168 35477 ft 505 kts 97°
2026-05-09 08:29 19.09880 -97.92474 34701 ft 506 kts 97°
2026-05-09 08:30 19.09516 -97.88739 33966 ft 506 kts 97°
2026-05-09 08:30 19.09155 -97.85045 33106 ft 505 kts 97°
2026-05-09 08:30 19.08794 -97.81354 32308 ft 504 kts 97°
2026-05-09 08:30 19.08436 -97.77704 31500 ft 503 kts 97°
2026-05-09 08:31 19.08075 -97.74031 30734 ft 502 kts 97°
2026-05-09 08:31 19.07713 -97.70364 29895 ft 501 kts 97°
2026-05-09 08:31 19.07351 -97.66701 28925 ft 500 kts 97°
2026-05-09 08:31 19.06988 -97.63039 28025 ft 500 kts 97°
2026-05-09 08:32 19.06630 -97.59427 27595 ft 488 kts 97°
2026-05-09 08:32 19.06279 -97.55888 27056 ft 480 kts 97°
2026-05-09 08:32 19.05597 -97.49060 25557 ft 477 kts 98°
2026-05-09 08:33 19.05250 -97.45599 25103 ft 468 kts 98°
2026-05-09 08:33 19.04911 -97.42217 24617 ft 460 kts 98°
2026-05-09 08:33 19.04575 -97.38872 23968 ft 456 kts 98°
2026-05-09 08:33 19.04238 -97.35530 23099 ft 458 kts 98°
2026-05-09 08:34 19.03903 -97.32218 22662 ft 448 kts 98°
2026-05-09 08:34 19.03575 -97.28976 22320 ft 436 kts 98°
2026-05-09 08:34 19.03259 -97.25850 22128 ft 420 kts 97°
2026-05-09 08:34 19.02954 -97.22834 21977 ft 405 kts 98°
2026-05-09 08:35 19.02657 -97.19934 21837 ft 391 kts 98°
2026-05-09 08:35 19.02372 -97.17128 21707 ft 377 kts 98°
2026-05-09 08:35 19.02257 -97.14398 21547 ft 368 kts 89°
2026-05-09 08:35 19.02522 -97.11743 21356 ft 358 kts 83°
2026-05-09 08:36 19.02868 -97.09174 21248 ft 347 kts 84°
2026-05-09 08:36 19.03193 -97.06693 21136 ft 335 kts 84°
2026-05-09 08:36 19.03502 -97.04301 21023 ft 323 kts 84°
2026-05-09 08:36 19.03798 -97.01990 20899 ft 312 kts 84°
2026-05-09 08:37 19.04085 -96.99744 20627 ft 307 kts 84°
2026-05-09 08:37 19.04370 -96.97504 20267 ft 306 kts 85°
2026-05-09 08:37 19.04409 -96.95287 19882 ft 302 kts 98°
2026-05-09 08:37 19.04005 -96.93125 19554 ft 297 kts 107°
2026-05-09 08:38 19.03475 -96.91012 19216 ft 296 kts 106°
2026-05-09 08:38 19.02964 -96.88911 18871 ft 295 kts 106°
2026-05-09 08:38 19.02461 -96.86819 18533 ft 293 kts 105°
2026-05-09 08:38 19.01961 -96.84741 18198 ft 291 kts 105°
2026-05-09 08:39 19.01462 -96.82670 17828 ft 290 kts 105°
2026-05-09 08:39 19.00964 -96.80610 17464 ft 288 kts 105°
2026-05-09 08:39 19.00469 -96.78561 17116 ft 287 kts 105°
2026-05-09 08:39 18.99975 -96.76525 16761 ft 286 kts 105°
2026-05-09 08:40 18.99483 -96.74496 16400 ft 285 kts 105°
2026-05-09 08:40 18.99158 -96.73160 16167 ft 283 kts 105°
2026-05-09 08:40 18.98670 -96.71147 15825 ft 282 kts 105°
2026-05-09 08:40 18.98184 -96.69144 15475 ft 281 kts 105°
2026-05-09 08:41 18.97700 -96.67151 15147 ft 279 kts 105°
2026-05-09 08:41 18.97218 -96.65167 14807 ft 278 kts 105°
2026-05-09 08:41 18.96738 -96.63194 14477 ft 277 kts 104°
2026-05-09 08:41 18.96274 -96.61285 14148 ft 276 kts 104°
2026-05-09 08:42 18.95789 -96.59313 13830 ft 274 kts 104°
2026-05-09 08:42 18.95326 -96.57412 13511 ft 273 kts 104°
2026-05-09 08:42 18.94855 -96.55470 13162 ft 272 kts 104°
2026-05-09 08:42 18.94387 -96.53539 12816 ft 271 kts 104°
2026-05-09 08:43 18.93920 -96.51613 12477 ft 270 kts 104°
2026-05-09 08:43 18.93449 -96.49673 12737 ft 269 kts 105°
2026-05-09 08:43 18.92998 -96.47797 12473 ft 265 kts 106°
2026-05-09 08:43 18.92539 -96.45927 12267 ft 259 kts 104°
2026-05-09 08:44 18.92089 -96.44091 11290 ft 263 kts 104°
2026-05-09 08:44 18.91625 -96.42198 10878 ft 266 kts 104°
2026-05-09 08:44 18.91219 -96.40298 10591 ft 265 kts 101°
2026-05-09 08:44 18.90871 -96.38399 10239 ft 262 kts 101°
2026-05-09 08:45 18.90523 -96.36513 9807 ft 262 kts 101°
2026-05-09 08:45 18.90174 -96.34629 9357 ft 261 kts 102°
2026-05-09 08:45 18.89825 -96.32759 8940 ft 258 kts 102°
2026-05-09 08:45 18.89479 -96.30913 8537 ft 255 kts 102°
2026-05-09 08:46 18.89137 -96.29086 8146 ft 252 kts 102°
2026-05-09 08:46 18.88799 -96.27279 7755 ft 250 kts 102°
2026-05-09 08:46 18.88812 -96.25464 7358 ft 250 kts 75°
2026-05-09 08:46 18.89657 -96.23882 6920 ft 252 kts 44°
2026-05-09 08:47 18.89880 -96.23661 6837 ft 252 kts 39°
2026-05-09 08:49 18.90976 -96.22994 6537 ft 253 kts 18°
2026-05-09 08:49 18.92706 -96.22658 6117 ft 253 kts
2026-05-09 08:50 18.94419 -96.22550 5931 ft 239 kts
2026-05-09 08:50 18.96039 -96.22414 5820 ft 228 kts
2026-05-09 08:50 18.97561 -96.22216 5745 ft 213 kts
2026-05-09 08:50 18.99069 -96.21973 5150 ft 223 kts
2026-05-09 08:51 19.00606 -96.21743 4434 ft 222 kts 25°
2026-05-09 08:51 19.02118 -96.21464 3492 ft 215 kts 28°
2026-05-09 08:51 19.03677 -96.21114 2134 ft 234 kts 27°
2026-05-09 08:51 19.05169 -96.20724 1534 ft 209 kts 28°
2026-05-09 08:52 19.06501 -96.20405 1257 ft 188 kts 12°
2026-05-09 08:52 19.07715 -96.20158 997 ft 169 kts
2026-05-09 08:52 19.08804 -96.19956 835 ft 150 kts 11°
2026-05-09 08:52 19.09777 -96.19737 704 ft 137 kts 12°
2026-05-09 08:53 19.10732 -96.19528 570 ft 141 kts 12°
2026-05-09 08:53 19.11689 -96.19330 400 ft 140 kts 11°
2026-05-09 08:53 19.12639 -96.19135 180 ft 138 kts 11°
2026-05-09 08:53 19.13548 -96.18950 116 ft 120 kts 11°
2026-05-09 08:54 19.14230 -96.18808 115 ft 77 kts 11°
2026-05-09 08:54 19.14475 -96.18759 115 ft 13 kts
2026-05-09 08:54 19.14551 -96.18743 113 ft 7 kts 20°
2026-05-09 08:54 19.14567 -96.18714 115 ft 9 kts 80°
2026-05-09 08:55 19.14567 -96.18698 112 ft 0 kts 91°
2026-05-09 08:55 19.14567 -96.18692 115 ft 2 kts 93°
2026-05-09 08:55 19.14562 -96.18661 115 ft 10 kts 99°
2026-05-09 08:56 19.14551 -96.18593 114 ft 5 kts 100°
2026-05-09 08:56 19.14550 -96.18588 115 ft 0 kts 100°
2026-05-09 08:56 19.14544 -96.18568 115 ft 7 kts 119°
2026-05-09 08:56 19.14476 -96.18552 115 ft 11 kts 191°
2026-05-09 08:57 19.14403 -96.18569 116 ft 12 kts 192°
2026-05-09 08:57 19.14350 -96.18553 114 ft 9 kts 118°
2026-05-09 08:57 19.14340 -96.18515 118 ft 4 kts 112°
2026-05-09 08:57 19.14290 -96.18502 116 ft 12 kts 190°
2026-05-09 08:58 19.14242 -96.18509 116 ft 3 kts 166°
2026-05-09 08:58 19.14226 -96.18469 118 ft 10 kts 100°
2026-05-09 08:58 19.14219 -96.18435 118 ft 0 kts 101°
2026-05-09 08:59 19.14220 -96.18440 117 ft 0 kts 101°